Weather Roundup
Issued by NWS

Home | Current Version | Previous Version | Text Only | Print | Product List | Glossary On
Versions: 1 2 3 4 5 6 7 8 9 10 11 12 13 14 15 16 17 18 19 20 21 22 23 24 25 26 27 28 29 30 31 32 33 34 35 36 37 38 39 40 41 42 43 44 45 46 47 48 49 50
000
NZUS93 KARX 241510
HRRWXR

CURRENT HOURLY OBSERVATIONS ACROSS
MUCH OF THE UPPER MISSISSIPPI VALLEY
NATIONAL WEATHER SERVICE LA CROSSE WI
1000 AM CDT SUN MAY 24 2015


...SOUTHEAST MINNESOTA...


CITY           SKY/WX    TMP DP  RH WIND       PRES   REMARKS
ROCHESTER      LGT RAIN  59  56  89 SE16      30.07F
ROCHESTER/MAYO CLOUDY    59  56  90 E10       30.06F
WINONA         RAIN      61  55  82 SE7       30.09F
AUSTIN         LGT RAIN  59  55  88 SE10      30.04S
ALBERT LEA     RAIN      59  57  94 SE13      30.02S
DODGE CENTER   LGT RAIN  61  55  82 SE14      30.04F
PRESTON        LGT RAIN  57  54  89 SE10      30.07F
OWATONNA       RAIN      63  55  77 SE15      30.02S
FARIBAULT      DRIZZLE   63  55  77 E7        30.02S
$$

...ELSEWHERE IN MINNESOTA...


CITY           SKY/WX    TMP DP  RH WIND       PRES   REMARKS
MINNEAPOLIS    LGT RAIN  63  54  72 E9        30.03F
INTNL FALLS    SUNNY     71  47  42 W3        30.07F
DULUTH         PTSUNNY   66  46  48 VRB3      30.10F
RED WING       LGT RAIN  64  52  63 SE10      30.05S
REDWOOD FALLS  CLOUDY    60  56  86 VRB5      29.99S
MANKATO        CLOUDY    63  55  77 SE10      30.00F
WORTHINGTON    CLOUDY    59  54  82 E12       29.96F
FAIRMONT       CLOUDY    61  54  77 E15       29.97F
$$

...SOUTHWEST WISCONSIN...


CITY           SKY/WX    TMP DP  RH WIND       PRES   REMARKS
LA CROSSE      LGT RAIN  62  56  80 SE6       30.10F
PRAIRIE DU CHI LGT RAIN  59  56  88 E9        30.08F
BOSCOBEL       HVY RAIN  60  57  89 CALM      30.12F FOG
LONE ROCK      LGT RAIN  59  55  87 SE3       30.14F FOG
PLATTEVILLE    CLOUDY    59  58  94 E9        30.11F
FORT MC COY    LGT RAIN  59  54  82 SE3       30.14S
CAMP DOUGLAS   LGT RAIN  59  59 100 S5        30.13S
VIROQUA        CLOUDY    57  56  95 SE10      30.12F
WIS DELLS      LGT RAIN  58  54  86 S3        30.16R
$$

...ELSEWHERE IN WISCONSIN...


CITY           SKY/WX    TMP DP  RH WIND       PRES   REMARKS
MILWAUKEE      LGT RAIN  65  52  62 SW7       30.18R
MADISON        LGT RAIN  61  54  77 S3        30.16R
GREEN BAY      CLOUDY    69  49  48 S6        30.14S
EAU CLAIRE     CLOUDY    64  49  57 SE5       30.08S
BLACK RVR FLS  RAIN      61  53  75 S7        30.12R
MEDFORD        CLOUDY    66  50  55 SE6       30.12S
WAUSAU         CLOUDY    67  52  58 CALM      30.11F
WIS RAPIDS     CLOUDY    67  48  50 SW9       30.14R
MARSHFIELD     CLOUDY    66  49  54 S6        30.12S
RICE LAKE      CLOUDY    67  47  48 E7        30.09F
$$

...NORTHEAST IOWA...


CITY           SKY/WX    TMP DP  RH WIND       PRES   REMARKS
DECORAH        CLOUDY    57  57 100 SE10G17   30.05F
MASON CITY     LGT RAIN  59  57  93 E16       30.00F FOG
CHARLES CITY   CLOUDY    59  59 100 E14       30.02F
OELWEIN        CLOUDY    59  57  94 SE17G25   30.04F FOG
$$

...ELSEWHERE IN IOWA...


CITY           SKY/WX    TMP DP  RH WIND       PRES   REMARKS
DES MOINES     LGT RAIN  62  59  90 SE14G22   29.89F FOG
IOWA CITY      HVY RAIN  60  58  92 E14G21    30.02F FOG
FORT DODGE     CLOUDY    59  55  88 E16       29.92F
$$

...NORTHERN ILLINOIS...


CITY           SKY/WX    TMP DP  RH WIND       PRES   REMARKS
CHICAGO-OHARE  CLOUDY    66  54  65 SE7       30.15F
CHICAGO-MIDWAY CLOUDY    67  56  67 E7        30.16F
MOLINE         CLOUDY    61  56  83 E10       30.05F
ROCKFORD       LGT RAIN  62  56  80 NE6       30.15F
PEORIA         CLOUDY    72  56  57 SE5       30.07F
$$

NOTE: "FAIR" INDICATES FEW OR NO CLOUDS BELOW 12,000 FEET WITH NO
SIGNIFICANT WEATHER AND/OR OBSTRUCTIONS TO VISIBILITY. WIND
SPEEDS ARE IN MILES-PER-HOUR.



USA.gov is the U.S. government's official web portal to all federal, state and local government web resources and services.